Home > Weather > Cluj-Napoca > Past weeks

Flag for Romania Past Weather in Cluj-Napoca, Romania — Yesterday and Last 2 Weeks

Now
73 °F

Sunny.


Feels Like: 77 °F
Forecast: 59 / 85 °F
Wind: 5 mph from North

Location: Cluj Airport-Napoca

Current Time: Jun 30, 2016 at 9:53:06 AM

Latest Report: Jun 30, 2016 at 9:30 AM


Visibility: 10 mi

Pressure: 30.04 "Hg

Humidity: 57%

Dew Point: 57 °F

Location of Cluj-NapocaLocation

Past Weather in Cluj-Napoca — Graph

°F

Cluj-Napoca Temperature Yesterday

Maximum temperature yesterday: 79 °F (at 3:00 PM)
Minimum temperature yesterday: 63 °F (at 6:00 AM)
Average temperature yesterday: 72 °F

High & Low Weather Summary for the Past Weeks

 TemperatureHumidityPressure
High93 °F (Jun 17, 3:30 PM)100% (Jun 16, 2:00 AM)30.24 "Hg (Jun 16, 2:00 AM)
Low54 °F (Jun 16, 5:30 AM)28% (Jun 17, 4:30 PM)29.59 "Hg (Jun 15, 8:00 AM)
Average74 °F70%30.01 "Hg
* Reported Jun 15 8:00 AM — Jun 30 8:30 AM, Cluj-Napoca, Weather by CustomWeather, © 2016

Note: Actual official high and low records may vary slightly from our data, if they occured in-between our weather recording intervals... More about our weather records

Advertising

Cluj-Napoca Weather History for the Previous 24 Hours

Scroll right to see more
 ConditionsComfort  
Time TempWeatherWind HumidityBarometerVisibility
8:30 AM
Thu, Jun 30
70 °FSunny.7 mph64%30.04 "Hg10 mi
8:00 AM66 °FSunny.6 mph73%30.04 "Hg10 mi
7:30 AM64 °FSunny.7 mph78%30.04 "Hg10 mi
7:00 AM63 °FPassing clouds.5 mph83%30.04 "HgN/A
6:30 AM61 °FClear.6 mph88%30.04 "Hg10 mi
6:00 AM61 °FClear.6 mph88%30.04 "Hg10 mi
5:30 AM61 °FClear.6 mph88%30.04 "Hg10 mi
5:00 AM61 °FClear.6 mph88%30.01 "Hg10 mi
4:00 AM61 °FClear.3 mph88%30.01 "Hg10 mi
3:00 AM63 °FClear.6 mph88%30.01 "Hg10 mi
2:00 AM64 °FClear.8 mph83%30.01 "Hg10 mi
1:00 AM64 °FClear.8 mph83%30.01 "Hg10 mi
12:00 AM66 °FClear.5 mph78%30.01 "Hg10 mi
11:30 PM
Wed, Jun 29
66 °FClear.7 mph78%30.01 "Hg10 mi
11:00 PM68 °FClear.8 mph73%30.01 "Hg10 mi
10:30 PM68 °FClear.5 mph73%30.01 "Hg10 mi
10:00 PM68 °FSunny.5 mph78%29.98 "Hg10 mi
9:30 PM70 °FSunny.5 mph73%29.98 "Hg10 mi
9:00 PM73 °FSunny.6 mph65%29.98 "Hg10 mi
8:30 PM75 °FPassing clouds.7 mph61%29.98 "HgN/A
8:00 PM77 °FPassing clouds.9 mph54%29.98 "HgN/A
7:30 PM77 °FPassing clouds.9 mph54%29.95 "HgN/A
7:00 PM79 °FPassing clouds.10 mph51%29.95 "HgN/A
6:30 PM79 °FPassing clouds.10 mph51%29.95 "HgN/A
6:00 PM79 °FPassing clouds.10 mph51%29.95 "HgN/A
5:30 PM77 °FPassing clouds.12 mph54%29.95 "HgN/A
5:00 PM79 °FPassing clouds.9 mph54%29.95 "HgN/A
4:30 PM79 °FPassing clouds.9 mph54%29.95 "HgN/A
4:00 PM79 °FPassing clouds.10 mph54%29.95 "HgN/A
3:30 PM79 °FPassing clouds.10 mph51%29.95 "HgN/A
3:00 PM79 °FPassing clouds.9 mph51%29.95 "HgN/A
2:30 PM77 °FScattered clouds.9 mph57%29.98 "HgN/A
2:00 PM77 °FScattered clouds.9 mph57%29.98 "HgN/A
1:30 PM77 °FScattered clouds.6 mph57%29.98 "HgN/A
1:00 PM75 °FScattered clouds.7 mph57%29.95 "HgN/A
12:30 PM77 °FScattered clouds.5 mph57%29.98 "HgN/A
12:00 PM75 °FPassing clouds.7 mph61%29.98 "HgN/A
11:30 AM75 °FPassing clouds.3 mph57%29.98 "HgN/A
11:00 AM73 °FPassing clouds.5 mph61%29.95 "HgN/A
10:30 AM73 °FPassing clouds.6 mph61%29.95 "HgN/A
10:00 AM73 °FSunny.3 mph65%29.95 "Hg10 mi
9:30 AM72 °FSunny.2 mph65%29.95 "Hg10 mi
9:00 AM72 °FSunny.3 mph65%29.95 "Hg10 mi
Weather by CustomWeather, © 2016

See weather overviewHow to use our weather pages